Weather History for Dodge City, KS

Change the Weather History Date:

Thursday, November 8, 2012

  Actual Average Record
Temperature  
Mean Temperature 52 °F -  
Max Temperature 66 °F 57 °F 91 °F (1980)
Min Temperature 37 °F 35 °F 16 °F (1925)
Degree Days  
Heating Degree Days 14    
Growing Degree Days 2 (Base 50)    
Moisture  
Dew Point 34 °F    
Average Humidity 52    
Maximum Humidity 76    
Minimum Humidity 22    
Precipitation  
Precipitation 0.00 in - - ()
Sea Level Pressure  
Sea Level Pressure 29.82 in    
Wind  
Wind Speed 10 mph (East)    
Max Wind Speed 16 mph    
Max Gust Speed -    
Visibility 10 miles    
Events      
Averages and records for this station are not official NWS values.
T = Trace of Precipitation, MM = Missing Value Source: NWS Daily Summary

Daily Weather History Graph

Daily Weather History Graph

Search for Another Location

Airport:

Trip Planner

Search our weather history database for the weather conditions in past years. The results will help you decide how hot, cold, wet, or windy it might be!

Date:

Astronomy

Nov. 08, 2012 Rise Set
Actual Time 7:13 AM CST 5:33 PM CST
Civil Twilight 6:45 AM CST 6:01 PM CST
Nautical Twilight 6:14 AM CST 6:32 PM CST
Astronomical Twilight 5:43 AM CST 7:03 PM CST
Moon 1:16 AM CST (11/8) 2:10 PM CST (11/8)
Length of Visible Light 11h 15m
Length of Day
10h 20m
Waning Crescent, 32% of the Moon is Illuminated
Nov 8
Waning Crescent
Nov 13
New
Nov 20
First Quarter
Nov 28
Full
Dec 6
Last Quarter

Hourly Weather History & Observations

Time (CST) Temp. Windchill Dew Point Humidity Pressure Visibility Wind Dir Wind Speed Gust Speed Precip Events Conditions
12:52 AM 48.9 °F - 30.9 °F 50% 29.88 in 10.0 mi SSE 15.0 mph - N/A   Clear
1:52 AM 48.0 °F - 30.9 °F 52% 29.86 in 10.0 mi SSE 16.1 mph - N/A   Clear
2:52 AM 46.9 °F - 30.0 °F 52% 29.83 in 10.0 mi SSE 16.1 mph - N/A   Clear
3:52 AM 46.0 °F 39.3 °F 30.9 °F 56% 29.81 in 10.0 mi SSE 16.1 mph - N/A   Clear
4:52 AM 44.1 °F 37.4 °F 30.9 °F 60% 29.81 in 10.0 mi South 13.8 mph - N/A   Clear
5:52 AM 43.0 °F 35.7 °F 30.9 °F 62% 29.80 in 10.0 mi SSE 15.0 mph - N/A   Clear
6:52 AM 41.0 °F 38.0 °F 30.9 °F 67% 29.82 in 10.0 mi South 4.6 mph - N/A   Clear
7:52 AM 39.9 °F 36.7 °F 30.9 °F 70% 29.83 in 9.0 mi SSE 4.6 mph - N/A   Clear
8:52 AM 46.0 °F 41.4 °F 33.1 °F 61% 29.83 in 10.0 mi SSE 9.2 mph - N/A   Clear
9:52 AM 53.1 °F - 36.0 °F 52% 29.82 in 10.0 mi SSE 8.1 mph - N/A   Clear
10:52 AM 57.2 °F - 35.6 °F 44% 29.86 in 10.0 mi Calm Calm - N/A   Clear
11:52 AM 62.1 °F - 37.0 °F 39% 29.81 in 10.0 mi ENE 3.5 mph - N/A   Clear
12:52 PM 64.0 °F - 36.0 °F 35% 29.78 in 10.0 mi Calm Calm - N/A   Clear
1:52 PM 66.0 °F - 37.0 °F 34% 29.77 in 10.0 mi North 6.9 mph - N/A   Clear
2:52 PM 66.0 °F - 36.0 °F 33% 29.77 in 10.0 mi Calm Calm - N/A   Clear
3:52 PM 66.0 °F - 36.0 °F 33% 29.79 in 10.0 mi North 4.6 mph - N/A   Clear
4:52 PM 59.0 °F - 37.9 °F 46% 29.82 in 10.0 mi NW 3.5 mph - N/A   Clear
5:52 PM 53.1 °F - 36.0 °F 52% 29.83 in 10.0 mi North 5.8 mph - N/A   Clear
6:52 PM 48.9 °F - 36.0 °F 61% 29.85 in 10.0 mi NNW 3.5 mph - N/A   Clear
7:52 PM 50.0 °F - 36.0 °F 59% 29.85 in 7.0 mi NNW 5.8 mph - N/A   Clear
8:52 PM 46.9 °F - 36.0 °F 66% 29.83 in 10.0 mi NE 4.6 mph - N/A   Clear
9:52 PM 46.0 °F 42.5 °F 35.1 °F 66% 29.81 in 10.0 mi North 6.9 mph - N/A   Clear
10:52 PM 43.0 °F 39.5 °F 35.1 °F 74% 29.82 in 10.0 mi North 5.8 mph - N/A   Clear
11:52 PM 41.0 °F 38.0 °F 34.0 °F 76% 29.79 in 10.0 mi North 4.6 mph - N/A   Clear